Flag Weather past 2 weeks in Monrovia, Liberia

Now
81 °F

Scattered clouds.


Feels Like: 87 °F
Forecast: N/A
Wind: 3 mph from Southwest

Location: Roberts Field

Current Time: Nov 23, 2014 at 7:05:03 PM

Latest Report: Nov 23, 2014 at 6:30 PM


Visibility: N/A

Pressure: 29.86 "Hg

Humidity: 89%

Dew point: 77 °F

Location of MonroviaLocation

Historic Weather in Monrovia — Graph

°F

Monrovia temperature yesterday

Maximum temperature yesterday: 88 °F (at 12:30 PM)
Minimum temperature yesterday: 73 °F (at 6:00 AM)
Average temperature yesterday: 80 °F

Past Weeks' High & Low Weather Summary

 TemperatureHumidityPressure
High90 °F (Nov 15, 2:00 PM)100% (Nov 20, 3:30 AM)29.95 "Hg (Nov 20, 3:30 AM)
Low72 °F (Nov 18, 6:30 AM)66% (Nov 17, 2:00 PM)29.77 "Hg (Nov 10, 3:30 PM)
Average80 °F87%29.87 "Hg
* Reported Nov 8 6:30 PM — Nov 23 6:00 PM, Monrovia, Weather by CustomWeather, © 2014

Note: Actual official high and low records may vary slightly from our data, if they occured in-between our weather recording intervals... More about our weather records

Advertising

Monrovia weather history for previous 24 hours

 ConditionsComfort  
Time TempWeatherWind HumidityBarometerVisibility
6:00 PM
Nov 23
81 °FScattered clouds.3 mph89%29.86 "HgN/A
5:30 PM82 °FPartly sunny.No wind84%29.83 "HgN/A
5:00 PM81 °FThunderstorms. Partly sunny.No wind89%29.83 "HgN/A
4:30 PM81 °FThunderstorms. Partly sunny.No wind89%29.83 "HgN/A
4:00 PM81 °FThunderstorms. Partly sunny.No wind89%29.83 "Hg4 mi
3:30 PM82 °FThunderstorms. Partly sunny.7 mph84%29.83 "Hg5 mi
3:00 PM82 °FPartly sunny.10 mph84%29.83 "HgN/A
2:30 PM86 °FPartly sunny.7 mph75%29.86 "HgN/A
2:00 PM86 °FSprinkles. Partly sunny.7 mph75%29.86 "Hg5 mi
1:30 PM88 °FPartly sunny.8 mph70%29.86 "HgN/A
1:00 PM88 °FPartly sunny.7 mph70%29.89 "HgN/A
12:30 PM86 °FPartly sunny.6 mph75%29.89 "HgN/A
12:00 PM86 °FPartly sunny.5 mph75%29.92 "HgN/A
11:30 AM86 °FPartly sunny.5 mph75%29.92 "HgN/A
10:30 AM84 °FPartly sunny.3 mph79%29.92 "HgN/A
10:00 AM82 °FPartly sunny.3 mph84%29.92 "HgN/A
9:30 AM79 °FPartly sunny.6 mph94%29.95 "HgN/A
9:00 AM79 °FScattered clouds.3 mph94%29.95 "HgN/A
8:30 AM77 °FScattered clouds.3 mph94%29.92 "Hg6 mi
8:00 AM77 °FScattered clouds.5 mph94%29.92 "Hg4 mi
7:30 AM77 °FPassing clouds.6 mph94%29.92 "Hg4 mi
7:00 AM77 °FFog.3 mph94%29.89 "Hg3 mi
6:30 AM77 °FPassing clouds.No wind94%29.89 "Hg5 mi
6:00 AM77 °FPassing clouds.No wind94%29.89 "HgN/A
5:30 AM77 °FPassing clouds.No wind94%29.89 "HgN/A
5:00 AM77 °FPassing clouds.No wind94%29.89 "HgN/A
4:00 AM77 °FThunderstorms. Passing clouds.No wind94%29.86 "HgN/A
3:30 AM77 °FThunderstorms. Passing clouds.No wind94%29.86 "HgN/A
3:00 AM77 °FThunderstorms. Passing clouds.No wind94%29.86 "HgN/A
1:30 AM77 °FThunderstorms. Passing clouds.No wind94%29.89 "HgN/A
1:00 AM77 °FThunderstorms. Passing clouds.5 mph94%29.89 "HgN/A
12:30 AM79 °FPassing clouds.No wind94%29.92 "HgN/A
12:00 AM79 °FPassing clouds.No wind94%29.92 "HgN/A
11:30 PM
Nov 22
79 °FPassing clouds.No wind94%29.92 "HgN/A
11:00 PM79 °FPassing clouds.No wind94%29.92 "HgN/A
10:30 PM79 °FPassing clouds.No wind94%29.92 "HgN/A
10:00 PM79 °FThunderstorms. Passing clouds.No wind94%29.92 "HgN/A
9:30 PM79 °FThunderstorms. Passing clouds.3 mph94%29.92 "HgN/A
9:00 PM79 °FThunderstorms. Passing clouds.5 mph94%29.92 "HgN/A
8:30 PM79 °FThunderstorms. Passing clouds.5 mph94%29.89 "HgN/A
8:00 PM79 °FThunderstorms. Passing clouds.5 mph94%29.89 "Hg6 mi
7:30 PM81 °FThunderstorms. Passing clouds.No wind84%29.86 "HgN/A
7:00 PM81 °FThunderstorms. Scattered clouds.No wind84%29.86 "HgN/A
Weather by CustomWeather, © 2014

See weather overviewHow to use our weather pages